H1 CPF 2 NER 2022 9 26 9 269 01 glonass139 H2 1808601 9139 43687 2022 9 26 0 0 0 2022 9 29 23 45 0 900 1 1 0 0 0 1 H9 10 0 59848 0.00000 0 17420580.975 15641656.835 10146183.628 10 0 59848 900.00000 0 18171967.420 16406719.483 7178635.010 10 0 59848 1800.00000 0 18726875.974 16837564.205 4071718.988 10 0 59848 2700.00000 0 19034315.714 16956721.011 885725.191 10 0 59848 3600.00000 0 19050720.084 16797653.620 -2317474.032 10 0 59848 4500.00000 0 18741947.504 16403154.189 -5475626.211 10 0 59848 5400.00000 0 18084903.399 15823356.703 -8527312.354 10 0 59848 6300.00000 0 17068713.536 15113452.996 -11413147.418 10 0 59848 7200.00000 0 15695397.337 14331208.208 -14076943.432 10 0 59848 8100.00000 0 13980010.871 13534381.249 -16466811.862 10 0 59848 9000.00000 0 11950251.616 12778159.990 -18536182.900 10 0 59848 9900.00000 0 9645540.007 12112720.426 -20244720.970 10 0 59848 10800.00000 0 7115614.868 11581013.790 -21559118.033 10 0 59848 11700.00000 0 4418700.449 11216875.918 -22453748.716 10 0 59848 12600.00000 0 1619321.035 11043539.401 -22911174.133 10 0 59848 13500.00000 0 -1214146.129 11072611.871 -22922484.412 10 0 59848 14400.00000 0 -4012077.792 11303563.898 -22487473.149 10 0 59848 15300.00000 0 -6706262.900 11723748.237 -21614640.394 10 0 59848 16200.00000 0 -9232501.418 12308949.547 -20321024.210 10 0 59848 17100.00000 0 -11533035.654 13024441.115 -18631864.190 10 0 59848 18000.00000 0 -13558712.966 13826503.536 -16580103.740 10 0 59848 18900.00000 0 -15270790.250 14664340.635 -14205741.139 10 0 59848 19800.00000 0 -16642305.715 15482311.042 -11555042.361 10 0 59848 20700.00000 0 -17658961.738 16222380.390 -8679631.633 10 0 59848 21600.00000 0 -18319483.392 16826689.799 -5635478.022 10 0 59848 22500.00000 0 -18635439.402 17240131.434 -2481798.504 10 0 59848 23400.00000 0 -18630534.987 17412821.791 720100.274 10 0 59848 24300.00000 0 -18339408.380 17302367.852 3908018.311 10 0 59848 25200.00000 0 -17805983.615 16875830.299 7020072.780 10 0 59848 26100.00000 0 -17081450.660 16111300.966 9995898.735 10 0 59848 27000.00000 0 -16221959.353 14999028.261 12777816.589 10 0 59848 27900.00000 0 -15286125.196 13542043.380 15311943.912 10 0 59848 28800.00000 0 -14332452.426 11756261.249 17549230.457 10 0 59848 29700.00000 0 -13416782.726 9670051.971 19446397.251 10 0 59848 30600.00000 0 -12589876.306 7323300.494 20966762.704 10 0 59848 31500.00000 0 -11895226.096 4765993.266 22080940.915 10 0 59848 32400.00000 0 -11367195.741 2056389.900 22767399.997 10 0 59848 33300.00000 0 -11029558.367 -741145.382 23012870.771 10 0 59848 34200.00000 0 -10894496.418 -3558563.895 22812598.788 10 0 59848 35100.00000 0 -10962103.743 -6326705.572 22170435.385 10 0 59848 36000.00000 0 -11220410.441 -8977920.156 21098766.159 10 0 59848 36900.00000 0 -11645929.508 -11448629.529 19618277.905 10 0 59848 37800.00000 0 -12204702.776 -13681726.590 17757567.872 10 0 59848 38700.00000 0 -12853803.053 -15628712.494 15552601.819 10 0 59848 39600.00000 0 -13543230.315 -17251484.394 13046030.157 10 0 59848 40500.00000 0 -14218123.224 -18523699.982 10286374.098 10 0 59848 41400.00000 0 -14821193.782 -19431662.241 7327096.251 10 0 59848 42300.00000 0 -15295283.131 -19974687.410 4225572.714 10 0 59848 43200.00000 0 -15585930.913 -20164940.600 1041985.738 10 0 59848 44100.00000 0 -15643849.492 -20026745.621 -2161841.976 10 0 59848 45000.00000 0 -15427197.814 -19595397.709 -5323648.725 10 0 59848 45900.00000 0 -14903557.651 -18915528.899 -8381947.391 10 0 59848 46800.00000 0 -14051527.187 -18039094.853 -11277227.053 10 0 59848 47700.00000 0 -12861862.842 -17023068.188 -13953118.418 10 0 59848 48600.00000 0 -11338119.181 -15926935.966 -16357499.573 10 0 59848 49500.00000 0 -9496757.917 -14810107.485 -18443519.729 10 0 59848 50400.00000 0 -7366719.577 -13729342.417 -20170520.123 10 0 59848 51300.00000 0 -4988474.095 -12736308.480 -21504833.600 10 0 59848 52200.00000 0 -2412588.721 -11875372.321 -22420446.750 10 0 59848 53100.00000 0 302127.861 -11181717.332 -22899511.351 10 0 59848 54000.00000 0 3090828.444 -10679868.081 -22932694.974 10 0 59848 54900.00000 0 5885085.788 -10382683.747 -22519363.819 10 0 59848 55800.00000 0 8615504.354 -10290862.900 -21667594.196 10 0 59848 56700.00000 0 11214376.566 -10392980.203 -20394012.509 10 0 59848 57600.00000 0 13618273.007 -10666052.950 -18723466.966 10 0 59848 58500.00000 0 15770458.583 -11076612.815 -16688537.640 10 0 59848 59400.00000 0 17623034.232 -11582236.717 -14328894.698 10 0 59848 60300.00000 0 19138715.277 -12133471.127 -11690517.700 10 0 59848 61200.00000 0 20292172.844 -12676067.513 -8824791.744 10 0 59848 62100.00000 0 21070883.403 -13153433.372 -5787498.682 10 0 59848 63000.00000 0 21475452.272 -13509194.289 -2637723.763 10 0 59848 63900.00000 0 21519399.178 -13689757.871 563300.163 10 0 59848 64800.00000 0 21228416.759 -13646770.529 3753387.688 10 0 59848 65700.00000 0 20639135.031 -13339362.893 6870611.281 10 0 59848 66600.00000 0 19797445.518 -12736088.844 9854503.079 10 0 59848 67500.00000 0 18756457.058 -11816476.364 12647224.587 10 0 59848 68400.00000 0 17574170.317 -10572124.957 15194681.764 10 0 59848 69300.00000 0 16310969.449 -9007303.619 17447564.336 10 0 59848 70200.00000 0 15027036.388 -7139024.256 19362290.059 10 0 59848 71100.00000 0 13779795.936 -4996587.278 20901836.757 10 0 59848 72000.00000 0 12621498.030 -2620617.919 22036447.233 10 0 59848 72900.00000 0 11597037.380 -61632.666 22744194.693 10 0 59848 73800.00000 0 10742100.507 2621805.699 23011398.949 10 0 59848 74700.00000 0 10081716.470 5365269.143 22832886.200 10 0 59848 75600.00000 0 9629270.795 8100892.685 22212088.016 10 0 59848 76500.00000 0 9386023.010 10759951.060 21160977.701 10 0 59848 77400.00000 0 9341147.499 13275478.606 19699845.040 10 0 59848 78300.00000 0 9472295.874 15584825.425 17856913.071 10 0 59848 79200.00000 0 9746657.539 17632045.124 15667803.296 10 0 59848 80100.00000 0 10122474.478 19370015.965 13174858.430 10 0 59848 81000.00000 0 10550947.296 20762207.843 10426334.531 10 0 59848 81900.00000 0 10978452.995 21784021.803 7475476.793 10 0 59848 82800.00000 0 11348981.593 22423646.014 4379495.975 10 0 59848 83700.00000 0 11606689.067 22682392.151 1198464.431 10 0 59848 84600.00000 0 11698458.677 22574497.602 -2005847.274 10 0 59848 85500.00000 0 11576361.934 22126401.248 -5171170.589 10 0 59849 0.00000 0 11199914.192 21375522.903 -8235952.232 10 0 59849 900.00000 0 10538027.881 20368596.977 -11140557.994 10 0 59849 1800.00000 0 9570579.694 19159631.496 -13828438.770 10 0 59849 2700.00000 0 8289522.921 17807577.195 -16247240.833 10 0 59849 3600.00000 0 6699496.416 16373806.149 -18349833.728 10 0 59849 4500.00000 0 4817902.379 14919506.263 -20095236.623 10 0 59849 5400.00000 0 2674447.837 13503101.983 -21449424.166 10 0 59849 6300.00000 0 310167.343 12177810.304 -22385995.653 10 0 59849 7200.00000 0 -2224033.409 10989435.468 -22886694.077 10 0 59849 8100.00000 0 -4869253.218 9974495.372 -22941764.780 10 0 59849 9000.00000 0 -7560812.608 9158758.575 -22550146.603 10 0 59849 9900.00000 0 -10230720.449 8556253.315 -21719491.801 10 0 59849 10800.00000 0 -12810287.321 8168789.697 -20466014.415 10 0 59849 11700.00000 0 -15232776.709 7986014.500 -18814170.149 10 0 59849 12600.00000 0 -17435983.355 7985995.293 -16796174.215 10 0 59849 13500.00000 0 -19364631.322 8136308.111 -14451366.801 10 0 59849 14400.00000 0 -20972491.815 8395581.501 -11825438.904 10 0 59849 15300.00000 0 -22224132.655 8715430.389 -8969534.144 10 0 59849 16200.00000 0 -23096226.938 9042696.724 -5939244.688 10 0 59849 17100.00000 0 -23578367.130 9321900.892 -2793521.511 10 0 59849 18000.00000 0 -23673351.710 9497799.100 406478.929 10 0 59849 18900.00000 0 -23396933.947 9517937.662 3598588.435 10 0 59849 19800.00000 0 -22777044.982 9335095.508 6720837.414 10 0 59849 20700.00000 0 -21852525.503 8909511.287 9712657.723 10 0 59849 21600.00000 0 -20671420.843 8210800.847 12516054.559 10 0 59849 22500.00000 0 -19288912.256 7219484.211 15076724.795 10 0 59849 23400.00000 0 -17764972.060 5928057.848 17345100.504 10 0 59849 24300.00000 0 -16161841.323 4341567.180 19277298.312 10 0 59849 25200.00000 0 -14541435.557 2477655.198 20835957.304 10 0 59849 26100.00000 0 -12962786.458 366084.802 21990950.451 10 0 59849 27000.00000 0 -11479625.584 -1952245.868 22719957.102 10 0 59849 27900.00000 0 -10138209.659 -4426755.120 23008886.651 10 0 59849 28800.00000 0 -8975476.909 -6999037.301 22852146.095 10 0 59849 29700.00000 0 -8017610.017 -9605054.616 22252746.911 10 0 59849 30600.00000 0 -7279064.476 -12177571.991 21222249.359 10 0 59849 31500.00000 0 -6762102.018 -14648735.621 19780545.040 10 0 59849 32400.00000 0 -6456848.030 -16952689.916 17955481.233 10 0 59849 33300.00000 0 -6341870.337 -19028125.666 15782333.276 10 0 59849 34200.00000 0 -6385255.205 -20820654.543 13303134.001 10 0 59849 35100.00000 0 -6546135.715 -22284911.922 10565871.868 10 0 59849 36000.00000 0 -6776608.694 -23386300.659 7623572.053 10 0 59849 36900.00000 0 -7023959.902 -24102302.915 4533277.251 10 0 59849 37800.00000 0 -7233103.891 -24423304.767 1354947.136 10 0 59849 38700.00000 0 -7349135.445 -24352898.425 -1849702.665 10 0 59849 39600.00000 0 -7319884.435 -23907648.608 -5018399.564 10 0 59849 40500.00000 0 -7098365.189 -23116332.158 -8089527.450 10 0 59849 41400.00000 0 -6645015.611 -22018682.229 -11003330.481 10 0 59849 42300.00000 0 -5929629.829 -20663689.430 -13703083.005 10 0 59849 43200.00000 0 -4932900.866 -19107531.222 -16136202.035 10 0 59849 44100.00000 0 -3647506.226 -17411216.677 -18255279.818 10 0 59849 45000.00000 0 -2078688.628 -15638045.941 -20019015.522 10 0 59849 45900.00000 0 -244305.457 -13850991.569 -21393027.299 10 0 59849 46800.00000 0 1825656.942 -12110112.173 -22350528.406 10 0 59849 47700.00000 0 4090085.269 -10470107.440 -22872853.827 10 0 59849 48600.00000 0 6498216.832 -8978117.411 -22949826.949 10 0 59849 49500.00000 0 8991531.808 -7671858.403 -22579959.055 10 0 59849 50400.00000 0 11505981.619 -6578173.675 -21770477.701 10 0 59849 51300.00000 0 13974460.706 -5712059.127 -20537183.512 10 0 59849 52200.00000 0 16329418.608 -5076204.154 -18904138.241 10 0 59849 53100.00000 0 18505503.122 -4661065.903 -16903190.419 10 0 59849 54000.00000 0 20442124.153 -4445472.427 -14573348.054 10 0 59849 54900.00000 0 22085831.018 -4397727.819 -11960010.988 10 0 59849 55800.00000 0 23392403.884 -4477171.129 -9114078.413 10 0 59849 56700.00000 0 24328572.140 -4636121.556 -6090949.520 10 0 59849 57600.00000 0 24873288.372 -4822126.186 -2949437.474 10 0 59849 58500.00000 0 25018505.375 -4980413.790 249381.337 10 0 59849 59400.00000 0 24769424.832 -5056449.699 3443359.616 10 0 59849 60300.00000 0 24144208.570 -4998482.753 6570489.254 10 0 59849 61200.00000 0 23173165.946 -4759976.010 9570105.132 10 0 59849 62100.00000 0 21897452.894 -4301818.155 12384059.071 10 0 59849 63000.00000 0 20367338.363 -3594222.141 14957841.355 10 0 59849 63900.00000 0 18640111.768 -2618231.105 17241628.419 10 0 59849 64800.00000 0 16777719.507 -1366768.248 19191237.287 10 0 59849 65700.00000 0 14844229.422 154813.445 20768969.351 10 0 59849 66600.00000 0 12903228.710 1928704.838 21944328.329 10 0 59849 67500.00000 0 11015262.953 3925139.259 22694599.843 10 0 59849 68400.00000 0 9235421.830 6103396.106 23005282.574 10 0 59849 69300.00000 0 7611170.660 8413268.751 22870363.584 10 0 59849 70200.00000 0 6180516.622 10796937.107 22292433.129 10 0 59849 71100.00000 0 4970584.534 13191168.719 21282636.918 10 0 59849 72000.00000 0 3996660.376 15529758.590 19860466.512 10 0 59849 72900.00000 0 3261741.467 17746108.089 18053391.274 10 0 59849 73800.00000 0 2756611.436 19775837.296 15896337.987 10 0 59849 74700.00000 0 2460436.614 21559323.240 13431027.009 10 0 59849 75600.00000 0 2341858.797 23044059.148 10705176.493 10 0 59849 76500.00000 0 2360538.664 24186736.717 7771588.788 10 0 59849 77400.00000 0 2469085.201 24954964.291 4687135.684 10 0 59849 78300.00000 0 2615289.977 25328548.629 1511661.334 10 0 59849 79200.00000 0 2744572.006 25300285.833 -1693176.360 10 0 59849 80100.00000 0 2802529.590 24876227.255 -4865103.434 10 0 59849 81000.00000 0 2737490.650 24075408.254 -7942443.156 10 0 59849 81900.00000 0 2502952.637 22929050.234 -10865320.845 10 0 59849 82800.00000 0 2059807.495 21479268.719 -13576835.979 10 0 59849 83700.00000 0 1378255.989 19777341.226 -16024177.996 10 0 59849 84600.00000 0 439328.650 17881607.397 -18159663.247 10 0 59849 85500.00000 0 -764052.728 15855089.576 -19941672.043 10 0 59850 0.00000 0 -2226519.590 13762934.047 -21335466.851 10 0 59850 900.00000 0 -3930233.147 11669779.367 -22313875.841 10 0 59850 1800.00000 0 -5845393.489 9637165.313 -22857826.319 10 0 59850 2700.00000 0 -7931263.892 7721087.428 -22956719.948 10 0 59850 3600.00000 0 -10137666.563 5969802.504 -22608640.373 10 0 59850 4500.00000 0 -12406888.594 4421975.607 -21820390.024 10 0 59850 5400.00000 0 -14675918.732 3105246.030 -20607355.273 10 0 59850 6300.00000 0 -16878921.574 2035271.411 -18993202.689 10 0 59850 7200.00000 0 -18949845.618 1215289.115 -17009412.472 10 0 59850 8100.00000 0 -20825055.931 636211.821 -14694658.454 10 0 59850 9000.00000 0 -22445881.094 277251.681 -12094047.045 10 0 59850 9900.00000 0 -23760967.573 107044.987 -9258230.508 10 0 59850 10800.00000 0 -24728342.943 85228.032 -6242412.434 10 0 59850 11700.00000 0 -25317101.679 164395.820 -3105265.451 10 0 59850 12600.00000 0 -25508643.305 292359.145 92216.888 10 0 59850 13500.00000 0 -25297411.700 414603.122 3287910.990 10 0 59850 14400.00000 0 -24691105.569 476841.960 6419773.044 10 0 59850 15300.00000 0 -23710352.361 427561.090 9427043.735 10 0 59850 16200.00000 0 -22387860.536 220438.644 12251424.239 10 0 59850 17100.00000 0 -20767086.799 -183456.238 14838200.842 10 0 59850 18000.00000 0 -18900474.995 -813780.955 17137296.736 10 0 59850 18900.00000 0 -16847340.892 -1689432.028 19104231.450 10 0 59850 19800.00000 0 -14671491.279 -2817515.144 20700970.424 10 0 59850 20700.00000 0 -12438676.451 -4192815.828 21896649.437 10 0 59850 21600.00000 0 -10213981.402 -5797793.184 22668161.222 10 0 59850 22500.00000 0 -8059263.167 -7603097.514 23000594.108 10 0 59850 23400.00000 0 -6030739.508 -9568591.063 22887515.112 10 0 59850 24300.00000 0 -4176827.590 -11644830.593 22331092.719 10 0 59850 25200.00000 0 -2536320.930 -13774951.546 21342057.119 10 0 59850 26100.00000 0 -1136979.004 -15896876.969 19939498.503 10 0 59850 27000.00000 0 5412.978 -17945760.987 18150506.663 10 0 59850 27900.00000 0 887475.924 -19856566.656 16009657.867 10 0 59850 28800.00000 0 1518142.822 -21566672.049 13558357.784 10 0 59850 29700.00000 0 1918043.120 -23018396.861 10844051.826 10 0 59850 30600.00000 0 2118391.385 -24161344.522 7919316.916 10 0 59850 31500.00000 0 2159426.817 -24954461.862 4840851.232 10 0 59850 32400.00000 0 2088469.255 -25367729.702 1668380.651 10 0 59850 33300.00000 0 1957673.607 -25383412.675 -1536497.409 10 0 59850 34200.00000 0 1821577.701 -24996814.724 -4711510.339 10 0 59850 35100.00000 0 1734547.704 -24216507.326 -7794923.465 10 0 59850 36000.00000 0 1748229.920 -23064019.604 -10726745.874 10 0 59850 36900.00000 0 1909117.871 -21573002.202 -13449904.686 10 0 59850 37800.00000 0 2256338.970 -19787899.139 -15911364.131 10 0 59850 38700.00000 0 2819755.963 -17762182.706 -18063166.836 10 0 59850 39600.00000 0 3618465.047 -15556225.122 -19863376.169 10 0 59850 40500.00000 0 4659755.819 -13234896.047 -21276900.702 10 0 59850 41400.00000 0 5938578.623 -10864986.606 -22276184.212 10 0 59850 42300.00000 0 7437543.239 -8512567.972 -22841747.385 10 0 59850 43200.00000 0 9127450.343 -6240395.143 -22962570.489 10 0 59850 44100.00000 0 10968334.534 -4105464.498 -22636309.453 10 0 59850 45000.00000 0 12910975.918 -2156827.199 -21869341.087 10 0 59850 45900.00000 0 14898817.383 -433749.464 -20676636.661 10 0 59850 46800.00000 0 16870207.457 1035704.038 -19081466.328 10 0 59850 47700.00000 0 18760874.669 2235605.292 -17114940.391 10 0 59850 48600.00000 0 20506529.559 3162578.740 -14815396.566 10 0 59850 49500.00000 0 22045484.932 3825681.944 -12227645.521 10 0 59850 50400.00000 0 23321184.133 4245757.965 -9402089.923 10 0 59850 51300.00000 0 24284531.046 4454288.709 -6393734.759 10 0 59850 52200.00000 0 24895923.928 4491799.642 -3261108.855 10 0 59850 53100.00000 0 25126907.830 4405885.100 -65119.486 10 0 59850 54000.00000 0 24961376.584 4248939.422 3132136.939 10 0 59850 54900.00000 0 24396274.565 4075691.275 6268584.321 10 0 59850 55800.00000 0 23441769.538 3940646.539 9283372.367 10 0 59850 56700.00000 0 22120890.287 3895548.604 12118054.543 10 0 59850 57600.00000 0 20468645.113 3986963.723 14717715.722 10 0 59850 58500.00000 0 18530658.856 4254093.400 17032028.049 10 0 59850 59400.00000 0 16361385.940 4726905.816 19016215.345 10 0 59850 60300.00000 0 14021974.153 5424664.696 20631908.480 10 0 59850 61200.00000 0 11577867.978 6354917.140 21847876.272 10 0 59850 62100.00000 0 9096250.540 7512982.815 22640619.145 10 0 59850 63000.00000 0 6643429.377 8881966.085 22994815.232 10 0 59850 63900.00000 0 4282273.341 10433291.089 22903611.246 10 0 59850 64800.00000 0 2069805.370 12127738.304 22368753.192 10 0 59850 65700.00000 0 55049.405 13916940.598 21400554.605 10 0 59850 66600.00000 0 -1722780.671 15745277.784 20017702.741 10 0 59850 67500.00000 0 -3235676.252 17552092.289 18246905.856 10 0 59850 68400.00000 0 -4467756.473 19274135.073 16122387.418 10 0 59850 69300.00000 0 -5415680.261 20848141.064 13685235.853 10 0 59850 70200.00000 0 -6088531.306 22213427.610 10982621.096 10 0 59850 71100.00000 0 -6507181.029 23314407.905 8066891.789 10 0 59850 72000.00000 0 -6703156.303 24102914.309 4994569.584 10 0 59850 72900.00000 0 -6717059.491 24540233.830 1825259.158 10 0 59850 73800.00000 0 -6596607.369 24598769.602 -1379505.431 10 0 59850 74700.00000 0 -6394371.712 24263257.398 -4557455.708 10 0 59850 75600.00000 0 -6165317.361 23531484.705 -7646801.690 10 0 59850 76500.00000 0 -5964242.412 22414480.641 -10587438.665 10 0 59850 77400.00000 0 -5843229.668 20936167.276 -13322123.579 10 0 59850 78300.00000 0 -5849218.299 19132485.722 -15797597.375 10 0 59850 79200.00000 0 -6021799.746 17050032.570 -17965630.598 10 0 59850 80100.00000 0 -6391332.505 14744263.128 -19783971.047 10 0 59850 81000.00000 0 -6977456.945 12277336.240 -21217174.415 10 0 59850 81900.00000 0 -7788074.372 9715690.613 -22237301.216 10 0 59850 82800.00000 0 -8818834.724 7127454.010 -22824466.009 10 0 59850 83700.00000 0 -10053155.746 4579793.583 -22967228.038 10 0 59850 84600.00000 0 -11462773.849 2136317.989 -22662815.573 10 0 59850 85500.00000 0 -13008804.213 -145360.258 -21917179.521 10 0 59851 0.00000 0 -14643265.941 -2215800.546 -20744875.480 10 0 59851 900.00000 0 -16311009.333 -4035558.792 -19168775.882 10 0 59851 1800.00000 0 -17951962.049 -5576582.701 -17219619.709 10 0 59851 2700.00000 0 -19503602.557 -6823124.225 -14935406.675 10 0 59851 3600.00000 0 -20903554.405 -7772129.613 -12360649.501 10 0 59851 4500.00000 0 -22092192.711 -8433093.614 -9545498.799 10 0 59851 5400.00000 0 -23015152.773 -8827385.735 -6544758.304 10 0 59851 6300.00000 0 -23625635.004 -8987079.048 -3416810.262 10 0 59851 7200.00000 0 -23886409.093 -8953332.933 -222472.802 10 0 59851 8100.00000 0 -23771433.222 -8774400.019 2976187.788 10 0 59851 9000.00000 0 -23267020.520 -8503343.191 6117066.083 10 0 59851 9900.00000 0 -22372504.283 -8195560.498 9139223.774 10 0 59851 10800.00000 0 -21100374.648 -7906223.533 11984069.512 10 0 59851 11700.00000 0 -19475881.638 -7687738.035 14596489.525 10 0 59851 12600.00000 0 -17536121.844 -7587334.034 16925907.464 10 0 59851 13500.00000 0 -15328647.301 -7644886.960 18927253.705 10 0 59851 14400.00000 0 -12909654.713 -7891061.095 20561826.430 10 0 59851 15300.00000 0 -10341830.277 -8345852.932 21798028.947 10 0 59851 16200.00000 0 -7691939.071 -9017595.184 22611970.347 10 0 59851 17100.00000 0 -5028258.112 -9902463.016 22987919.063 10 0 59851 18000.00000 0 -2417958.304 -10984503.236 22918601.529 10 0 59851 18900.00000 0 75457.754 -12236185.679 22405340.867 10 0 59851 19800.00000 0 2394557.581 -13619454.601 21458033.147 10 0 59851 20700.00000 0 4490122.221 -15087237.238 20094961.522 10 0 59851 21600.00000 0 6322943.852 -16585347.918 18342451.218 10 0 59851 22500.00000 0 7865204.190 -18054709.587 16234371.093 10 0 59851 23400.00000 0 9101377.220 -19433801.202 13811490.225 10 0 59851 24300.00000 0 10028619.331 -20661229.754 11120700.679 10 0 59851 25200.00000 0 10656630.916 -21678319.945 8214120.178 10 0 59851 26100.00000 0 11006995.337 -22431613.239 5148091.005 10 0 59851 27000.00000 0 11112023.042 -22875171.250 1982093.661 10 0 59851 27900.00000 0 11013149.395 -22972585.992 -1222404.199 10 0 59851 28800.00000 0 10758953.767 -22698611.382 -4403141.277 10 0 59851 29700.00000 0 10402883.632 -22040345.963 -7498275.244 10 0 59851 30600.00000 0 10000780.260 -20997915.412 -10447590.430 10 0 59851 31500.00000 0 9608311.182 -19584624.477 -13193676.285 10 0 59851 32400.00000 0 9278418.930 -17826570.307 -15683052.933 10 0 59851 33300.00000 0 9058894.993 -15761731.939 -17867221.052 10 0 59851 34200.00000 0 8990182.771 -13438573.007 -19703614.787 10 0 59851 35100.00000 0 9103503.606 -10914215.301 -21156438.515 10 0 59851 36000.00000 0 9419386.320 -8252258.991 -22197370.649 10 0 59851 36900.00000 0 9946663.431 -5520340.337 -22806120.353 10 0 59851 37800.00000 0 10681977.404 -2787528.707 -22970826.142 10 0 59851 38700.00000 0 11609818.579 -121671.381 -22688288.493 10 0 59851 39600.00000 0 12703093.759 2413203.089 -21964031.872 10 0 59851 40500.00000 0 13924201.905 4759314.888 -20812195.046 10 0 59851 41400.00000 0 15226571.776 6867295.356 -19255251.889 10 0 59851 42300.00000 0 16556596.700 8697992.051 -17323568.285 10 0 59851 43200.00000 0 17855884.741 10223842.050 -15054804.022 10 0 59851 44100.00000 0 19063729.107 11429757.279 -12493171.620 10 0 59851 45000.00000 0 20119694.192 12313486.280 -9688567.073 10 0 59851 45900.00000 0 20966207.817 12885439.134 -6695590.006 10 0 59851 46800.00000 0 21551049.962 13167984.907 -3572473.011 10 0 59851 47700.00000 0 21829632.765 13194253.284 -379941.838 10 0 59851 48600.00000 0 21766975.585 13006492.974 2819970.611 10 0 59851 49500.00000 0 21339291.997 12654058.043 5965132.793 10 0 59851 50400.00000 0 20535122.144 12191108.727 8994521.427 10 0 59851 51300.00000 0 19355963.250 11674125.041 11849403.149 10 0 59851 52200.00000 0 17816372.217 11159338.878 14474468.052 10 0 59851 53100.00000 0 15943536.462 10700193.231 16818893.475 10 0 59851 54000.00000 0 13776331.183 10344935.543 18837318.196 10 0 59851 54900.00000 0 11363902.440 10134446.065 20490709.220 10 0 59851 55800.00000 0 8763834.858 10100391.911 21747105.518 10 0 59851 56700.00000 0 6039979.516 10263783.649 22582225.672 10 0 59851 57600.00000 0 3260031.215 10633994.362 22979928.873 10 0 59851 58500.00000 0 492954.362 11208281.902 22932521.340 10 0 59851 59400.00000 0 -2193637.420 11971834.312 22440902.947 10 0 59851 60300.00000 0 -4736041.118 12898336.811 21514551.492 10 0 59851 61200.00000 0 -7076859.139 13951037.362 20171344.762 10 0 59851 62100.00000 0 -9167131.425 15084267.198 18437223.259 10 0 59851 63000.00000 0 -10968117.779 16245353.931 16345699.140 10 0 59851 63900.00000 0 -12452657.278 17376848.332 13937219.734 10 0 59851 64800.00000 0 -13606048.971 18418972.615 11258396.607 10 0 59851 65700.00000 0 -14426417.545 19312188.387 8361113.785 10 0 59851 66600.00000 0 -14924548.756 19999776.886 5301531.338 10 0 59851 67500.00000 0 -15123201.565 20430323.076 2139002.732 10 0 59851 68400.00000 0 -15055925.754 20559998.577 -1065073.599 10 0 59851 69300.00000 0 -14765434.674 20354546.355 -4248446.285 10 0 59851 70200.00000 0 -14301601.756 19790882.227 -7349223.301 10 0 59851 71100.00000 0 -13719165.540 18858244.037 -10307080.532 10 0 59851 72000.00000 0 -13075240.568 17558838.321 -13064442.268 10 0 59851 72900.00000 0 -12426739.973 15907955.388 -15567609.930 10 0 59851 73800.00000 0 -11827819.518 13933546.192 -17767816.203 10 0 59851 74700.00000 0 -11327452.052 11675277.257 -19622183.180 10 0 59851 75600.00000 0 -10967235.876 9183101.960 -21094565.256 10 0 59851 76500.00000 0 -10779530.548 6515406.980 -22156259.799 10 0 59851 77400.00000 0 -10785999.741 3736810.801 -22786571.362 10 0 59851 78300.00000 0 -10996623.370 915705.706 -22973218.224 10 0 59851 79200.00000 0 -11409221.239 -1878354.396 -22712573.251 10 0 59851 80100.00000 0 -12009508.648 -4577311.537 -22009734.300 10 0 59851 81000.00000 0 -12771681.787 -7117195.980 -20878422.901 10 0 59851 81900.00000 0 -13659508.148 -9440545.486 -19340713.236 10 0 59851 82800.00000 0 -14627875.755 -11498550.938 -17426596.881 10 0 59851 83700.00000 0 -15624735.415 -13252839.475 -15173392.041 10 0 59851 84600.00000 0 -16593353.541 -14676821.595 -12625009.074 10 0 59851 85500.00000 0 -17474779.802 -15756547.056 -9831087.139 99